[[{"header":{"parameterUnit":"m.s-1","parameterCategory":1,"la1":30.2991,"la2":30.254,"lo1":-89.0895,"lo2":-89.0444,"dy":0.0017,"dx":0.0017,"nx":28,"ny":28,"refTime":"2024-12-09T03:00:00:Z","depth":0,"parameterNumber":2,"parameterNumberName":"U-component_of_WINDS"},"data":[0,0,0,0,0,0,0,0,0,0,0,0,0,0,0,0,0,0,0,0,0,0,0,0,0,0,0,0,0,0,0,0,0,0,0,0,0,0,0,0,0,0,0,0,0,0,0,0,0,0,0,0,0,0,0,0,0,0,1.4381,1.4381,0,1.4454,1.4455,1.4456,1.4396,1.4393,1.439,1.4388,1.4472,1.4477,1.4481,0,0,0,0,0,0,0,0,0,0,0,0,0,1.4195,1.4199,1.4381,1.4381,1.4382,1.4454,1.4455,1.4456,1.4396,1.4393,1.439,1.4387,1.4471,1.4476,1.4482,0,0,0,0,0,0,0,0,0,0,0,0,0,1.4273,1.42,1.438,1.4361,1.436,1.4454,1.4455,1.4457,1.4397,1.4393,1.4389,1.4385,1.4469,1.4476,1.4483,1.4603,0,0,1.4504,1.4507,0,0,0,0,0,0,0,0,1.4269,1.428,1.4363,1.4362,1.4361,1.4412,1.4421,1.4506,1.4398,1.4383,1.4388,1.4383,1.4456,1.4464,1.4486,1.4607,1.461,1.4504,1.4509,1.4512,1.4514,0,0,0,0,0,0,0,1.4264,1.4277,1.441,1.4364,1.4363,1.4351,1.4358,1.4437,1.4441,1.4384,1.438,1.4389,1.4455,1.448,1.4488,1.4612,1.4504,1.451,1.4515,1.4517,1.4836,1.484,0,0,0,0,0,0,1.4259,1.4273,1.4408,1.4412,1.4304,1.4357,1.4365,1.44,1.4439,1.4441,1.4392,1.4386,1.447,1.448,1.449,1.4634,1.4512,1.4518,1.4522,1.4831,1.4837,1.4841,0,0,0,0,0,0,1.4255,1.4272,1.4405,1.4341,1.4357,1.4364,1.4404,1.4403,1.4428,1.4445,1.4446,1.4416,1.4467,1.4481,1.4575,1.4637,1.4521,1.4528,1.4826,1.4833,1.4839,1.4923,0,0,0,0,0,0,1.425,1.4271,1.4315,1.4343,1.4361,1.4486,1.4408,1.4407,1.4439,1.4431,1.4468,1.4471,1.4465,1.4565,1.4582,1.4644,1.4533,1.4821,1.4829,1.4837,1.4915,1.4932,1.4946,0,0,0,0,0,1.4244,1.4337,1.4317,1.4334,1.4415,1.4489,1.45,1.4489,1.4444,1.449,1.4501,1.447,1.4627,1.4575,1.4594,1.4659,1.4817,1.4827,1.4836,1.4908,1.4928,1.4946,0,0,0,0,0,0,1.4319,1.4341,1.4319,1.4423,1.4455,1.4479,1.4536,1.4511,1.4558,1.4549,1.4536,1.4545,1.4644,1.4661,1.4603,1.4778,1.4715,1.4729,1.4763,1.4783,1.4798,1.4793,1.4539,0,0,0,0,0,1.4348,1.4403,1.442,1.4511,1.4527,1.4529,1.4561,1.4549,1.4583,1.4596,1.4615,1.465,1.4708,1.4746,1.48,1.4917,1.4925,1.4971,1.4986,1.4999,1.5012,1.5076,1.5097,1.4873,1.4873,1.4872,0,0,1.4408,1.4426,1.4463,1.4526,1.4549,1.461,1.4541,1.4608,1.4653,1.4608,1.4697,1.4712,1.4751,1.4857,1.4905,1.4874,1.5075,1.5011,1.5021,1.5027,1.5088,1.5109,1.5128,1.4879,1.4878,1.4877,0,0,1.4548,1.4567,1.4645,1.4669,1.4703,1.4704,1.4722,1.4751,1.4758,1.4846,1.4814,1.4869,1.4968,1.4997,1.5025,1.5176,1.515,1.5194,1.5276,1.5338,1.5356,1.5372,1.5427,1.5447,1.5206,1.5206,1.5207,0,1.462,1.4706,1.4689,1.4758,1.4788,1.4746,1.4826,1.4851,1.4903,1.4926,1.4889,1.5012,1.5036,1.5149,1.5185,1.5209,1.5232,1.519,1.5354,1.537,1.5384,1.5437,1.5457,1.5212,1.5211,1.521,1.521,0,1.4793,1.4854,1.4913,1.4961,1.4997,1.5072,1.5068,1.5108,1.5093,1.5098,1.519,1.5216,1.5274,1.53,1.5288,1.5412,1.5392,1.5355,1.5292,1.5411,1.546,1.548,1.5219,1.5217,1.5216,1.5214,0,0,1.4984,1.502,1.5042,1.5064,1.5099,1.5147,1.522,1.5275,1.5309,1.5347,1.5409,1.5493,1.5459,1.5491,1.5481,1.5536,1.5655,1.5493,1.5494,1.5524,1.5796,1.5824,1.5847,1.5637,1.5641,1.5644,1.5793,0,1.5127,1.5251,1.5238,1.5358,1.5415,1.5376,1.544,1.547,1.5476,1.5528,1.5536,1.5596,1.5546,1.5565,1.5618,1.563,1.571,1.5619,1.5698,1.5701,1.5691,1.5872,1.5902,1.6041,1.5812,1.5815,1.5817,0,1.531,1.5351,1.5476,1.5502,1.5525,1.5583,1.5632,1.568,1.5714,1.5715,1.575,1.5731,1.5807,1.5741,1.5847,1.5785,1.5817,1.5828,1.5833,1.5841,1.5767,1.5887,1.6085,1.6107,1.5847,1.5845,1.5843,0,1.5438,1.5525,1.5611,1.563,1.5662,1.5704,1.572,1.5749,1.5783,1.5827,1.5849,1.5902,1.5931,1.5974,1.597,1.5922,1.6078,1.6012,1.6084,1.6084,1.612,1.6118,1.6327,1.6138,1.6138,1.6137,1.6137,0,1.56,1.5678,1.5668,1.5722,1.5809,1.5793,1.5881,1.5892,1.5919,1.5975,1.5945,1.6,1.599,1.6046,1.6043,1.6132,1.6146,1.6151,1.6149,1.6154,1.6154,1.6176,1.6167,1.6143,1.6141,1.614,1.6139,0,1.5759,1.5755,1.5846,1.5868,1.5876,1.594,1.596,1.6011,1.6015,1.6087,1.6103,1.611,1.6172,1.6172,1.6245,1.6244,1.6353,1.634,1.6341,1.6339,1.6411,1.6405,1.6643,1.6674,1.6464,1.6466,1.6467,0,1.5862,1.5921,1.5949,1.5984,1.6001,1.6057,1.6091,1.6078,1.6115,1.6157,1.6204,1.6264,1.6311,1.6414,1.6427,1.6483,1.6472,1.6551,1.648,1.6483,1.6475,1.6472,1.6478,1.6566,1.6568,1.657,1.6572,0,1.6048,1.6043,1.609,1.6138,1.6178,1.6216,1.6251,1.6281,1.6273,1.6316,1.6378,1.6414,1.6487,1.6548,1.6601,1.662,1.6596,1.6594,1.6613,1.662,1.6618,1.6621,1.638,1.6589,1.6587,1.6586,1.6585,1.6584,1.6183,1.6234,1.6261,1.6316,1.634,1.6373,1.6422,1.6431,1.6482,1.6538,1.6528,1.6599,1.6632,1.6701,1.6724,1.6781,1.6753,1.6782,1.6789,1.6797,1.6805,1.6607,1.6791,1.679,1.679,1.6789,1.6789,0,1.6367,1.6383,1.6433,1.6481,1.6525,1.6494,1.6531,1.657,1.6632,1.6663,1.6709,1.6782,1.684,1.6857,1.6914,1.6956,1.6946,1.6972,1.6969,1.6974,1.6826,1.6804,1.6979,1.6979,1.6978,1.6978,1.6978,1.6978,1.6468,1.6553,1.6551,1.6648,1.6663,1.673,1.6754,1.6785,1.681,1.6891,1.6939,1.6948,1.6975,1.7033,1.7086,1.7089,1.7112,1.7143,1.7142,1.7004,1.6985,1.6967,1.6946,1.7147,1.7147,1.7285,1.7287,1.7288]},{"header":{"parameterUnit":"m.s-1","parameterCategory":1,"la1":30.2991,"la2":30.254,"lo1":-89.0895,"lo2":-89.0444,"dy":0.0017,"dx":0.0017,"nx":28,"ny":28,"refTime":"2024-12-09T03:00:00:Z","depth":0,"parameterNumber":3,"parameterNumberName":"V-component_of_WINDS"},"data":[0,0,0,0,0,0,0,0,0,0,0,0,0,0,0,0,0,0,0,0,0,0,0,0,0,0,0,0,0,0,0,0,0,0,0,0,0,0,0,0,0,0,0,0,0,0,0,0,0,0,0,0,0,0,0,0,0,0,3.1458,3.146,0,3.161,3.1612,3.1613,3.161,3.1608,3.1606,3.1604,3.1759,3.1765,3.1771,0,0,0,0,0,0,0,0,0,0,0,0,0,3.1165,3.117,3.1458,3.146,3.1462,3.161,3.1612,3.1614,3.1611,3.1608,3.1606,3.1604,3.1757,3.1764,3.1771,0,0,0,0,0,0,0,0,0,0,0,0,0,3.1302,3.1172,3.1458,3.1478,3.1482,3.1609,3.1612,3.1614,3.1611,3.1608,3.1605,3.1602,3.1754,3.1763,3.1772,3.1889,0,0,3.18,3.1804,0,0,0,0,0,0,0,0,3.1294,3.1313,3.1473,3.1477,3.1481,3.1588,3.1565,3.1706,3.1612,3.1562,3.1604,3.1601,3.1704,3.1717,3.1752,3.1896,3.1903,3.18,3.1806,3.181,3.1812,0,0,0,0,0,0,0,3.1285,3.1306,3.1518,3.1476,3.148,3.148,3.1496,3.1592,3.1648,3.1566,3.1566,3.1584,3.1706,3.1744,3.1756,3.1905,3.18,3.1808,3.1814,3.1817,3.2153,3.2156,0,0,0,0,0,0,3.1271,3.1298,3.1513,3.1523,3.1378,3.1487,3.1505,3.1557,3.1647,3.1658,3.1587,3.1584,3.173,3.1746,3.1761,3.1905,3.181,3.1818,3.1823,3.2149,3.2153,3.2157,0,0,0,0,0,0,3.1265,3.129,3.1507,3.1411,3.1438,3.1496,3.1554,3.1561,3.1599,3.1663,3.1673,3.1615,3.1728,3.1749,3.1857,3.191,3.1822,3.183,3.2145,3.215,3.2155,3.2192,0,0,0,0,0,0,3.1256,3.1288,3.1333,3.1412,3.1443,3.1601,3.1557,3.1567,3.1615,3.1612,3.1692,3.1703,3.1727,3.1844,3.1866,3.1921,3.1837,3.2141,3.2147,3.2154,3.2187,3.2198,3.2208,0,0,0,0,0,3.1246,3.1337,3.1336,3.1362,3.1501,3.1604,3.1622,3.1649,3.1619,3.1665,3.1706,3.17,3.19,3.1855,3.188,3.1938,3.2137,3.2145,3.2153,3.2182,3.2196,3.2208,0,0,0,0,0,0,3.1263,3.1348,3.1347,3.1467,3.1528,3.1603,3.1662,3.1663,3.1734,3.1729,3.1758,3.1776,3.1885,3.1922,3.187,3.2056,3.2015,3.2028,3.2028,3.2042,3.2053,3.2042,3.1845,0,0,0,0,0,3.1281,3.1358,3.1428,3.1526,3.1557,3.1604,3.165,3.1666,3.173,3.1756,3.1805,3.1868,3.1945,3.1996,3.207,3.2191,3.2209,3.2244,3.2254,3.2263,3.2274,3.2342,3.2358,3.2183,3.2183,3.2183,0,0,3.1318,3.1374,3.1421,3.1531,3.1581,3.166,3.1626,3.1711,3.177,3.1769,3.1875,3.1913,3.1985,3.2101,3.2154,3.2135,3.2327,3.2273,3.2279,3.2286,3.2352,3.2368,3.2383,3.2188,3.2187,3.2187,0,0,3.1427,3.1477,3.1565,3.1616,3.1691,3.1722,3.1743,3.1819,3.1844,3.1951,3.1952,3.2022,3.2154,3.2206,3.2249,3.2377,3.2375,3.2401,3.2457,3.2522,3.2536,3.2549,3.2595,3.2611,3.2412,3.2412,3.2412,0,3.1464,3.1584,3.161,3.1696,3.1744,3.1748,3.1837,3.1884,3.198,3.2014,3.1991,3.2157,3.2206,3.2334,3.2365,3.24,3.2425,3.2392,3.2532,3.2545,3.2557,3.2602,3.2619,3.2414,3.2414,3.2414,3.2414,0,3.1626,3.1708,3.177,3.1864,3.1919,3.2006,3.2045,3.2098,3.2108,3.2141,3.225,3.2309,3.2395,3.2427,3.2437,3.2557,3.2543,3.2526,3.2485,3.2576,3.2618,3.2636,3.2418,3.2417,3.2417,3.2416,0,0,3.175,3.1857,3.188,3.1922,3.2006,3.207,3.2157,3.2242,3.2287,3.2353,3.2427,3.2539,3.2524,3.2573,3.2589,3.2647,3.2745,3.2623,3.2625,3.2644,3.2881,3.2894,3.2914,3.2744,3.2747,3.275,3.2875,0,3.1869,3.2024,3.205,3.2186,3.2263,3.2267,3.2343,3.2402,3.2435,3.2505,3.2541,3.262,3.2594,3.2624,3.2681,3.2721,3.2794,3.2712,3.2813,3.2816,3.2796,3.2936,3.295,3.3066,3.2892,3.2895,3.2897,0,3.2028,3.2098,3.2242,3.2316,3.2349,3.2417,3.2497,3.2564,3.2631,3.2651,3.2706,3.2716,3.2806,3.276,3.2885,3.283,3.2872,3.2898,3.2903,3.2915,3.2863,3.2952,3.3103,3.3121,3.2923,3.2921,3.2919,0,3.2105,3.2236,3.2339,3.2376,3.2464,3.2512,3.255,3.2615,3.2664,3.2734,3.2767,3.2846,3.289,3.2951,3.2981,3.2945,3.3104,3.3061,3.3124,3.3123,3.3158,3.3156,3.332,3.3184,3.3183,3.3183,3.3183,0,3.2235,3.2323,3.2376,3.2439,3.2538,3.2567,3.2664,3.2701,3.2759,3.2829,3.2837,3.2903,3.2939,3.3011,3.3035,3.3135,3.3154,3.3173,3.3179,3.3173,3.3171,3.3202,3.3195,3.3188,3.3187,3.3186,3.3185,0,3.2339,3.2378,3.249,3.2565,3.2586,3.2655,3.2719,3.2781,3.2813,3.2903,3.2925,3.2976,3.3061,3.3097,3.3201,3.3217,3.3332,3.3331,3.331,3.3312,3.3373,3.3367,3.3564,3.3591,3.3436,3.3437,3.3438,0,3.242,3.2488,3.257,3.2618,3.2659,3.2736,3.2787,3.2818,3.2871,3.2953,3.3005,3.3089,3.3159,3.3294,3.334,3.3419,3.3421,3.3484,3.3433,3.3425,3.3423,3.3419,3.3426,3.3494,3.3495,3.3497,3.3498,0,3.256,3.2576,3.2649,3.273,3.279,3.2855,3.2918,3.2957,3.2998,3.3056,3.3143,3.3197,3.3303,3.3388,3.347,3.3509,3.3511,3.3513,3.3532,3.3528,3.3513,3.3523,3.3337,3.3509,3.3508,3.3507,3.3506,3.3506,3.2655,3.2716,3.2784,3.2865,3.2916,3.2975,3.3037,3.3078,3.3151,3.324,3.3254,3.3347,3.3412,3.3523,3.3566,3.3639,3.3623,3.365,3.3657,3.3664,3.3668,3.3501,3.3653,3.3653,3.3653,3.3653,3.3652,0,3.2796,3.284,3.2915,3.3004,3.3068,3.3064,3.3133,3.3187,3.3269,3.333,3.3399,3.3499,3.358,3.3633,3.3715,3.3764,3.3766,3.3784,3.3782,3.3791,3.3677,3.3653,3.3781,3.3781,3.3781,3.3781,3.3781,3.3781,3.2877,3.2981,3.3004,3.3133,3.3176,3.3267,3.3308,3.3362,3.3411,3.3523,3.3591,3.3625,3.3683,3.3769,3.3844,3.3857,3.3888,3.3907,3.3919,3.3812,3.3799,3.3786,3.3764,3.3913,3.3913,3.4028,3.4029,3.4029]}]]